THOR ABLESTAR DEB, 544

Orbit data source: Space-Track

THOR ABLESTAR DEB, 544 is space debris in LEO originally from a launch on Thu, 29 Jun 1961 UTC launched from the Air Force Eastern Test Range (AFETR). Debris objects in space refer to the collection of defunct objects orbiting the Earth. Examples of debris include non-operational satellites, rocket bodies, and fragments generated from explosions, collisions, or faulty payload assembly.

Loading next visibility...
Identifier
544, 1961-015GD
Orbit
LEO
Country
Flag of USUS
Related business
Manufacturer
Unknown
Mission
Spacecraft
Bus & Motor
Unknown
Mass
Unknown
Launch date (UTC)
1961-06-29 (65 years ago)
Launch vehicle
Unknown
Launch site
Air Force Eastern Test Range (AFETR)
Object type
Payload
Rocket body
Debris
Shape & HBR
Unknown shape, 0.1 m
Radar Cross Section
Small (<0.1 m²)

Expand to show TLE details & history
Last TLE update: 11 hours ago

TLE from 11 hours ago
0 THOR ABLESTAR DEB
1   544U 61015GD  26126.93101359  .00000187  00000-0  32474-3 0  9993
2   544  66.8743 314.6406 0191887 291.3492 182.4972 13.56191838196012
Epoch: 2026-05-06T22:20Z
TLE epoch observation values (Epoch: 2026-05-06T22:20:39.574Z)
Latitude
57.43681°
Longitude
-107.01875°
Altitude
1,200.79 km
Speed
7.189 km/s
True Right ascension
06h 11m 43s
True Declination
57° 17' 23"
Sunlit
Object was in daylight at epoch
Visualization orbit readout
Latitude
Unknown
Longitude
Unknown
Altitude
Unknown
Speed
Unknown
Apparent Right ascension
Unknown
Apparent Declination
Unknown
Sunlit
N/A
Visualization observer readout
Local Sidereal Time
17:42:06
Azimuth
Unknown
Elevation
Unknown
Doppler factor
Unknown
Orbital elements
Apogee altitude
1,190.473 km
Perigee altitude
905.478 km
Semi-major axis
7,426.112 km
Eccentricity
0.01919
Inclination
66.8743°
RAAN
314.6406°
Arg. of periapsis
291.3492°
True anomaly
182.40364°
Mean anomaly
182.4972°
Eccentric anomaly
182.4502°
Mean motion
3.39157 °/min
Orbital period
106.15 mins
BSTAR
0.00032474
Loading maneuver chart data...
Computing Atmospheric mass density...
Loading historical data...
Loading historical data...
Loading historical data...
Loading historical data...
Loading historical data...
Loading historical data...
Loading historical data...

Documentation

Showing up to 5 results
|